Location: Killam
(52.7910°N, 111.8608°W)
Time: 22:36:31
(UTC+00:00)

Vanguard 3 - Pass Details

Date: 20 February 2026
Orbit: 507 x 3205 km, 33.4° (Epoch: 11 March)

Event Time Altitude Azimuth Distance (km) Brightness Sun altitude
Rises 21:19:28 0° 205° (SSW) 6,321 13.2 23.1°
Reaches altitude 10° 21:27:28 10° 182° (S) 4,631 12.3 22.6°
Maximum altitude 21:31:49 13° 161° (SSE) 3,988 11.4 22.3°
Drops below altitude 10° 21:35:30 10° 140° (SE) 3,791 10.9 22.0°
Sets 21:40:27 0° 112° (ESE) 4,193 10.7 21.6°
